GFSCGP_925_thetae_045.txt.gz
Theta_e
307 307 308 308 306 306 306 305 304 304 306 305 308 308 307 307 307 307 308 308 308 308 308 308 309 309 309 307 306 306 304 304 303 303 303 302 303 303 305 304 304 301 298 297
307 308 307 306 305 306 306 307 307 306 306 305 306 308 308 308 308 308 308 308 308 307 306 305 307 307 308 309 308 305 305 303 302 301 302 302 301 300 301 300 300 300 298 297
308 309 306 306 307 307 305 307 308 307 305 305 305 309 307 308 306 307 307 307 306 307 307 307 305 306 306 307 307 307 306 304 302 301 300 300 300 299 297 298 298 298 298 297
307 306 307 307 308 306 309 306 306 307 307 310 307 312 309 308 308 307 308 306 306 306 304 303 302 302 304 305 305 306 305 303 301 300 299 298 299 298 297 298 297 296 297 296
308 307 307 308 308 306 308 307 307 307 307 307 307 308 312 307 308 308 306 306 305 305 303 303 302 302 303 304 305 305 304 302 301 299 298 297 298 299 298 297 295 294 295 295
306 305 306 307 306 306 306 308 305 303 305 310 308 309 316 307 307 308 308 307 305 307 302 301 302 303 304 306 305 303 303 302 300 300 298 298 297 298 296 296 295 293 293 293
307 307 307 306 308 306 307 307 312 312 310 315 306 308 313 309 306 309 308 306 305 303 301 301 300 300 302 302 301 301 300 299 298 298 298 297 296 297 296 295 295 293 292 291
311 317 306 305 308 310 306 309 314 317 317 316 305 310 314 309 308 306 304 303 302 303 300 300 300 300 300 300 299 299 298 298 298 298 297 296 296 296 296 295 295 294 293 292
310 311 305 304 305 307 307 309 308 312 309 311 313 309 310 310 308 306 306 304 304 302 301 300 299 298 297 297 296 296 296 296 296 296 297 296 296 296 295 294 294 294 294 293
310 313 308 306 304 304 306 305 309 307 314 316 313 312 312 310 309 308 306 304 302 300 299 298 297 296 295 295 295 295 296 295 295 294 295 295 295 295 295 294 294 294 294 294
307 311 315 311 309 313 310 307 306 307 310 315 315 313 311 310 309 307 303 301 299 298 297 296 296 295 294 294 293 294 294 294 294 294 294 294 294 294 294 294 294 294 294 293
311 316 316 313 309 306 307 310 309 313 313 312 313 314 311 310 309 305 302 300 297 296 295 294 294 294 294 293 292 292 292 292 292 292 293 293 293 293 293 293 293 293 293 292
312 313 315 311 309 307 312 311 312 312 312 314 315 314 306 304 304 302 297 296 294 293 293 292 292 291 293 291 290 292 291 291 290 290 291 291 292 292 292 293 292 292 292 292
311 311 315 316 314 312 313 309 305 305 307 308 308 307 304 303 299 295 297 294 292 291 290 290 291 290 291 290 289 291 290 290 289 289 289 290 290 291 291 292 293 292 292 291
304 309 309 309 303 301 302 301 300 300 300 301 300 298 297 295 294 292 296 293 293 292 289 289 290 290 290 290 289 290 290 289 288 288 289 289 288 288 290 291 291 292 292 290
298 300 299 298 298 299 300 297 296 295 295 293 293 295 292 293 292 290 290 291 293 291 289 289 289 289 288 288 289 288 288 288 287 288 288 288 287 287 287 289 290 290 290 291
296 297 294 298 296 293 291 292 293 293 292 294 296 292 290 292 292 290 290 289 293 288 288 289 288 288 287 287 287 287 286 286 287 287 288 286 285 286 286 286 287 288 288 288
293 285 283 282 280 287 292 291 293 295 292 292 291 290 291 291 292 290 290 289 287 287 287 288 287 287 286 286 285 284 283 284 286 286 287 284 283 283 284 287 286 286 287 287
292 292 285 284 279 288 292 289 287 287 288 288 287 288 288 289 290 290 289 287 287 286 287 286 286 286 285 285 284 284 283 283 284 283 282 281 282 282 282 284 285 285 285 286
289 292 291 279 286 285 286 286 288 285 286 284 284 285 285 288 289 288 286 286 285 285 285 284 284 284 285 283 283 282 282 282 282 281 279 279 280 281 282 282 283 283 283 284
277 274 287 276 282 281 286 288 286 283 285 284 286 285 283 286 286 288 286 285 284 284 283 282 283 282 282 282 281 281 280 280 280 278 278 278 277 277 280 281 282 283 282 282
284 278 274 269 272 281 285 286 286 287 288 287 286 286 286 286 286 288 286 285 284 282 282 281 281 281 281 280 279 279 279 278 277 276 276 274 273 274 276 279 281 281 281 281
285 285 281 282 282 285 285 286 288 288 287 287 287 286 286 286 287 285 284 283 282 281 281 281 280 279 279 278 278 277 277 275 274 273 272 271 271 272 273 275 279 281 280 280
285 286 286 287 288 287 288 288 288 287 287 287 285 284 283 283 283 282 281 280 280 280 279 278 278 277 277 277 276 276 275 273 271 269 269 269 269 270 271 273 277 280 280 280
287 286 284 287 288 287 287 287 287 286 284 282 279 279 279 279 278 278 278 278 277 276 275 275 275 275 274 274 274 273 271 269 267 267 267 267 267 268 270 272 273 277 280 280
287 288 288 288 288 288 288 285 280 280 278 277 277 276 276 276 275 274 273 273 273 272 272 271 270 270 270 269 268 267 266 266 265 265 265 265 266 266 267 269 271 273 278 281

GFSCGP_925_thetae_048.txt.gz
Theta_e
310 313 314 315 314 314 312 313 313 313 313 312 312 313 312 312 312 312 313 313 313 313 313 310 310 310 310 308 308 308 307 307 308 309 310 311 310 310 309 309 307 306 305 304
311 313 313 311 310 311 312 313 314 314 312 309 313 313 313 313 313 313 313 313 313 313 313 311 309 309 309 309 308 307 306 305 306 307 308 309 309 308 307 307 305 304 303 302
316 316 311 310 311 311 312 312 314 314 312 312 311 316 315 314 312 312 311 311 312 312 312 310 309 309 309 309 308 307 306 305 304 305 305 306 306 305 305 305 304 303 301 300
312 311 310 310 311 312 314 313 311 311 312 316 311 318 316 315 315 313 312 312 312 312 311 310 310 308 307 305 305 305 304 304 303 302 303 304 304 304 303 303 303 301 300 299
314 310 310 312 312 310 313 309 310 310 312 311 314 314 318 313 315 314 313 312 312 312 310 308 307 305 305 304 303 302 302 302 302 301 302 302 303 303 303 302 302 300 299 298
310 306 309 311 308 309 308 310 310 310 311 316 317 315 317 315 313 312 313 313 314 309 308 306 304 303 302 301 300 299 300 300 300 300 300 301 301 302 302 302 300 300 299 296
312 310 309 307 310 308 309 312 318 322 321 321 314 314 315 315 315 311 312 310 307 306 304 303 301 300 299 298 299 298 298 298 297 298 299 299 300 300 300 301 300 299 298 296
318 320 311 309 312 316 312 315 320 326 323 322 317 316 315 314 311 310 308 305 305 304 303 301 300 298 297 296 296 297 297 297 296 296 296 297 297 298 298 299 299 298 298 297
319 319 308 306 308 311 312 313 313 315 317 319 314 314 315 315 310 308 308 308 306 303 302 301 299 298 296 295 295 295 295 295 294 295 295 295 295 296 296 297 296 296 296 295
313 316 314 309 306 307 310 310 315 313 316 320 314 314 315 314 313 309 307 305 302 301 300 298 297 296 296 294 293 294 293 293 292 292 293 294 293 293 294 295 295 294 295 295
311 316 317 313 315 315 313 310 309 310 314 318 320 317 313 313 310 306 304 302 300 298 296 295 294 293 294 294 292 293 292 293 292 291 291 292 293 292 292 292 293 293 294 294
313 315 318 315 313 312 312 314 314 319 319 316 316 316 312 312 306 301 300 299 296 294 294 293 292 292 292 292 291 291 292 291 291 290 290 291 292 291 291 291 292 292 292 293
313 316 317 318 314 310 312 313 312 314 314 317 317 316 311 307 304 299 299 296 295 294 292 291 290 291 291 291 291 290 290 290 289 289 290 290 290 290 291 291 290 291 291 291
308 310 315 317 314 311 312 314 311 308 310 311 311 309 306 304 299 297 295 294 293 293 291 290 290 290 290 289 289 289 288 288 287 288 288 289 288 287 288 288 289 290 290 290
304 308 308 307 304 302 304 304 303 303 303 304 303 302 302 298 295 294 293 291 290 292 291 289 289 290 289 288 288 288 287 287 286 287 287 288 286 285 285 286 287 289 289 289
299 302 300 300 300 300 300 300 299 298 298 298 299 299 294 293 293 292 291 290 290 291 290 289 289 289 288 288 287 287 286 286 285 286 287 287 284 283 283 284 285 286 288 288
297 298 299 300 298 294 295 296 296 296 296 295 294 295 291 289 289 289 290 290 290 291 289 288 288 288 288 287 286 286 286 285 284 284 285 285 282 282 283 282 283 284 286 287
295 294 295 295 290 294 295 293 294 295 295 295 295 291 290 289 289 289 290 291 290 290 289 289 288 288 287 286 286 285 285 284 283 283 284 283 281 281 281 281 282 282 283 285
294 294 293 293 294 293 292 292 291 291 291 294 292 290 289 289 289 289 290 290 290 290 289 288 287 287 286 285 285 284 283 283 282 282 282 281 280 279 279 278 279 281 282 283
291 293 294 286 293 292 292 289 290 289 291 290 290 290 290 288 288 289 289 289 289 289 289 288 286 285 284 284 284 282 282 282 282 281 281 279 278 278 276 276 277 278 280 281
290 290 293 294 293 292 291 289 289 289 290 289 290 290 290 290 290 290 289 288 288 288 287 286 285 284 283 283 282 281 281 281 280 280 279 278 277 275 274 274 275 276 277 280
290 289 289 284 287 289 288 288 288 290 290 290 290 289 289 289 288 288 288 288 287 286 285 284 283 282 282 281 280 280 280 279 279 278 277 276 274 272 272 272 272 274 275 277
289 289 290 288 289 290 289 290 290 290 290 290 290 289 288 287 286 285 285 284 283 282 281 280 280 279 279 278 277 277 277 277 276 276 273 272 271 271 270 270 271 272 274 277
289 289 289 290 289 289 290 290 290 290 290 289 286 283 282 282 282 281 281 280 279 277 276 275 275 275 274 274 273 273 273 272 269 268 269 269 269 269 269 269 270 271 273 276
290 288 289 290 289 289 289 289 289 288 284 282 281 280 279 279 278 277 276 275 274 273 272 271 270 270 269 268 268 267 267 266 266 266 266 266 266 266 267 267 268 270 271 272
290 289 290 290 290 290 289 289 282 282 280 278 277 277 276 274 274 273 272 271 270 269 268 267 266 265 265 264 263 263 262 262 262 263 263 263 264 264 264 265 266 267 269 271

GFSCGP_925_thetae_054.txt.gz
Theta_e
313 313 313 314 313 313 313 314 315 315 316 316 315 314 313 313 314 313 312 313 313 310 309 308 307 306 306 305 306 307 308 310 311 312 314 316 318 318 319 319 319 318 316 316
313 314 314 315 316 316 315 315 315 316 316 315 314 313 314 314 314 313 313 312 311 308 308 306 305 304 304 303 303 303 305 306 307 308 312 313 314 315 316 316 316 316 315 314
315 317 316 316 315 316 315 315 316 317 315 314 313 314 315 316 315 312 312 310 307 307 306 305 303 302 302 302 302 301 300 302 304 305 306 307 308 309 310 310 311 313 313 313
318 315 314 315 317 315 317 315 314 314 314 316 314 316 315 315 315 310 310 307 306 305 304 303 301 300 300 300 300 300 299 299 300 301 303 303 304 305 306 306 306 307 308 310
319 313 313 314 314 314 314 312 312 312 313 313 315 315 315 314 313 309 307 306 304 303 302 301 300 299 298 298 298 298 297 297 298 299 299 299 300 300 301 303 303 303 305 306
312 308 310 312 312 311 310 312 312 312 313 317 315 315 316 314 312 309 307 306 305 303 302 301 300 298 297 297 297 297 296 295 295 296 297 297 297 297 298 299 300 301 301 304
315 313 311 310 311 310 310 312 318 321 317 319 317 316 316 315 313 309 308 306 304 303 301 300 299 299 297 296 297 296 296 295 295 295 295 296 296 296 296 296 297 297 298 299
316 315 312 310 311 316 312 316 320 322 321 320 316 317 317 311 309 308 306 304 302 300 298 297 297 297 297 296 295 295 295 295 293 293 293 294 294 294 294 294 295 295 295 296
314 314 311 311 312 313 315 315 314 315 308 313 315 315 313 312 310 308 305 302 300 298 296 295 295 295 294 294 293 293 293 293 292 291 292 292 292 292 293 292 293 293 293 293
314 317 315 309 310 310 312 310 315 314 317 312 313 312 312 313 310 306 304 302 299 297 295 294 293 292 292 292 291 291 291 290 290 289 288 290 291 290 289 288 289 288 288 291
312 314 315 313 313 313 311 312 312 313 314 317 316 312 310 308 305 302 301 301 298 295 294 291 291 291 291 290 290 290 290 289 289 288 287 288 288 289 287 286 286 285 285 287
314 316 313 314 310 309 309 310 310 315 317 314 315 315 309 304 302 301 300 299 297 296 294 291 291 290 290 290 289 289 289 289 288 288 287 287 287 288 287 286 284 284 284 284
312 312 308 304 305 310 312 311 312 310 312 313 314 313 309 305 301 301 299 297 294 292 292 292 290 290 290 290 289 289 288 288 288 288 287 286 286 287 287 286 285 284 284 283
310 310 308 307 305 309 309 308 307 307 308 306 307 307 308 305 303 298 296 295 293 291 290 290 290 289 289 289 289 289 288 288 288 287 287 287 286 286 285 285 285 283 283 283
306 307 309 309 307 304 303 303 302 302 302 302 301 301 301 301 300 294 292 290 290 290 290 289 289 288 289 289 288 288 288 288 287 287 287 287 286 285 285 284 284 284 283 282
300 299 300 294 301 300 301 300 300 301 301 301 301 301 298 291 291 289 289 289 289 289 289 290 289 289 289 289 289 288 288 287 287 287 287 287 286 285 284 284 284 283 282 282
299 296 293 292 298 294 292 295 296 297 297 296 296 294 292 292 290 289 289 288 288 288 288 288 287 288 289 289 289 289 287 286 286 286 286 286 286 285 284 284 283 283 282 281
294 291 293 288 287 289 293 293 293 293 293 293 294 292 291 290 290 288 288 288 288 288 288 288 288 288 288 288 288 287 286 285 284 284 284 284 284 284 284 283 283 282 281 280
293 295 289 286 284 291 293 292 292 292 290 290 291 292 290 290 288 287 289 289 288 288 288 288 288 287 287 286 284 282 282 281 281 281 281 281 282 281 281 281 281 281 281 279
290 292 292 285 287 285 289 289 289 288 286 287 286 287 287 289 288 288 289 288 288 288 287 286 285 283 282 281 280 278 277 277 276 276 276 276 276 275 273 275 276 279 279 279
285 285 292 293 292 289 291 289 289 286 288 290 289 287 287 288 287 288 288 287 287 285 284 283 281 279 279 277 275 275 274 274 273 272 270 270 270 269 269 269 270 271 272 273
288 285 284 285 286 290 291 288 289 290 289 289 288 288 288 288 288 287 285 283 283 282 280 279 277 276 275 274 273 272 271 270 269 268 267 265 265 264 264 265 265 266 268 269
287 288 286 288 287 290 288 288 289 288 289 289 288 288 288 287 286 284 282 281 280 279 277 276 274 273 272 271 270 269 269 267 266 265 264 263 263 263 263 263 263 264 264 265
288 288 287 287 289 289 289 289 288 288 288 288 288 286 284 284 283 282 280 279 277 276 275 273 272 271 270 269 268 267 266 265 264 263 262 262 262 262 262 262 262 263 263 264
288 289 288 288 289 289 289 289 289 289 289 286 283 283 282 281 279 278 277 276 274 273 272 270 269 269 268 267 266 265 264 263 262 262 261 262 262 262 262 262 262 262 263 264
290 290 290 289 289 289 289 288 288 288 287 285 282 281 279 277 276 275 274 272 271 270 269 268 267 266 266 265 264 263 262 261 261 261 261 261 261 262 262 262 262 263 264 265

GFSCGP_925_thetae_057.txt.gz
Theta_e
311 309 311 310 309 310 310 312 312 312 313 313 313 312 311 311 310 309 309 307 306 304 303 302 302 301 301 301 303 304 305 306 309 312 312 314 316 318 319 320 320 320 319 319
311 311 311 310 312 313 312 313 313 312 313 314 312 311 312 312 311 310 306 305 305 304 301 300 299 300 300 299 300 301 302 303 304 306 308 310 311 311 312 314 316 317 317 316
312 313 312 314 315 315 314 314 313 314 313 311 312 312 312 311 307 306 305 304 303 302 301 299 298 297 298 298 297 298 299 299 301 303 304 305 305 305 305 305 306 306 309 313
314 314 315 314 315 314 315 313 313 313 311 315 312 315 312 311 307 305 304 302 301 300 299 299 298 297 296 296 296 296 295 296 298 299 299 299 298 299 299 300 302 303 304 308
317 313 312 313 314 312 314 311 311 311 311 312 312 313 312 308 308 306 303 302 301 300 299 298 296 296 296 296 296 296 296 295 295 296 296 296 296 296 297 297 298 299 300 302
311 308 309 310 310 311 309 311 311 310 310 315 314 313 313 310 309 306 304 302 302 300 299 298 297 296 296 296 295 295 295 294 294 294 294 294 294 295 295 295 295 295 296 297
313 311 310 309 310 309 309 310 315 317 315 318 314 314 313 309 307 306 304 302 300 298 296 295 296 296 295 294 294 294 294 293 292 292 293 293 293 292 292 292 292 292 292 294
315 315 310 309 310 312 310 313 318 316 319 317 313 315 315 307 305 303 301 299 297 295 294 293 293 294 294 293 293 292 292 291 289 289 289 290 290 290 289 289 288 288 288 288
313 312 310 309 310 312 314 314 313 315 301 309 312 313 310 307 304 302 300 298 296 294 293 292 292 292 292 291 291 291 290 290 289 288 288 288 289 288 287 287 286 286 286 286
313 316 312 310 310 308 312 310 314 311 310 308 312 311 309 309 305 302 300 297 295 294 291 290 290 291 290 290 289 289 289 289 288 288 287 287 287 288 287 287 286 285 285 285
312 312 312 311 311 312 310 310 310 311 312 313 311 310 308 308 303 301 300 299 295 294 290 289 290 290 290 289 289 289 288 288 288 288 287 287 286 286 286 287 286 285 285 284
312 316 315 314 310 308 308 309 309 312 314 313 315 315 305 302 300 300 299 298 295 294 290 288 290 290 290 289 289 289 289 288 288 288 287 287 287 287 286 286 285 285 285 284
311 312 301 301 307 309 310 310 310 310 310 310 313 311 303 302 301 299 298 296 291 290 291 290 290 289 289 289 289 289 289 288 288 288 288 287 287 287 287 286 286 285 284 284
308 307 303 305 305 308 307 308 306 307 306 305 306 305 304 301 299 295 293 290 289 289 288 288 289 288 288 289 289 289 288 288 288 288 287 287 287 287 286 286 286 286 284 284
306 305 306 305 307 304 304 304 302 302 301 299 299 297 297 297 297 290 288 288 288 288 288 288 288 288 288 288 288 288 288 288 288 287 287 287 287 286 286 285 285 285 284 283
299 298 298 295 300 300 300 299 298 299 299 298 298 299 297 291 287 287 288 288 288 287 287 288 288 288 288 288 288 288 287 287 286 286 285 285 285 284 284 284 284 284 283 283
298 295 291 291 295 292 290 294 295 295 295 297 297 296 289 291 289 288 288 288 287 287 288 287 286 287 287 287 286 286 285 284 283 282 282 282 282 282 282 282 283 283 283 282
294 290 287 286 284 288 292 291 292 292 292 292 292 289 289 289 288 287 288 288 287 287 287 286 286 286 285 283 282 281 280 279 279 278 278 278 277 277 276 276 276 276 276 277
294 295 286 286 278 287 292 291 291 291 289 287 288 290 289 288 287 287 288 287 287 287 287 286 284 282 281 280 278 277 276 276 275 275 275 274 273 272 271 271 271 270 270 271
291 294 291 275 284 285 286 287 288 286 287 282 284 284 285 288 286 286 286 287 287 286 284 283 282 280 278 277 275 274 274 273 273 272 271 270 269 268 267 267 266 266 266 266
283 283 293 290 284 284 288 288 288 287 288 287 287 284 284 286 286 287 287 286 284 283 281 281 279 277 276 274 273 272 271 271 270 269 268 267 266 265 264 264 264 263 263 264
286 284 282 283 286 288 288 288 289 289 289 289 287 287 287 287 287 286 285 283 282 280 278 277 275 274 273 272 271 270 269 269 267 266 265 264 263 263 263 262 262 262 262 263
288 287 285 287 286 287 287 287 288 288 288 287 287 286 286 286 286 285 283 281 280 278 276 275 273 272 271 270 269 268 267 266 265 264 262 262 262 262 262 262 262 262 262 262
287 286 287 286 288 288 288 287 287 287 287 287 287 286 286 286 284 282 281 279 277 275 274 272 271 270 269 268 267 266 265 264 263 262 261 261 261 261 261 262 262 262 262 262
287 287 286 286 288 288 287 287 287 287 287 287 285 284 283 282 280 279 278 276 274 273 271 270 269 268 267 266 265 265 264 263 262 262 261 261 261 261 261 261 262 262 263 264
289 289 289 288 289 288 288 288 287 287 287 286 283 281 280 279 278 276 274 273 271 270 269 268 267 266 265 264 264 263 263 262 261 261 261 260 260 261 261 261 262 262 264 265

GFSCGP_925_thetae_060.txt.gz
Theta_e
310 308 309 309 309 310 310 310 309 309 310 312 312 311 310 310 309 305 305 303 302 300 299 298 297 297 298 299 301 302 304 306 310 311 312 312 313 313 314 316 318 318 318 318
310 310 310 309 309 310 310 310 311 311 310 312 312 311 308 305 305 305 304 302 301 299 298 297 296 296 295 296 297 298 299 301 302 304 305 306 308 304 305 306 306 306 310 314
312 313 310 311 311 314 313 312 312 313 312 309 311 311 310 305 305 303 302 300 299 298 297 297 296 295 295 295 295 295 296 297 298 299 301 302 302 301 301 301 302 302 303 307
311 311 313 312 314 313 316 312 312 313 310 312 310 314 311 306 305 303 301 299 298 297 296 296 295 295 295 295 295 295 295 295 296 296 296 296 295 295 295 296 297 298 299 301
317 314 312 314 314 312 314 310 310 310 310 311 311 311 310 306 306 303 301 300 298 297 296 294 294 294 294 294 294 293 292 293 293 293 293 293 293 293 293 293 294 294 296 297
311 309 309 310 309 310 309 310 310 307 308 314 312 312 312 308 307 304 301 300 299 297 295 295 294 293 293 293 292 291 290 289 290 290 290 290 290 289 289 289 288 288 289 289
313 312 309 308 310 308 308 309 314 315 314 317 312 311 312 307 305 304 302 299 297 294 293 292 293 292 292 291 291 290 289 288 288 288 288 288 288 288 287 286 286 286 286 286
315 314 309 308 310 310 307 310 316 314 317 316 310 313 312 304 303 301 299 296 294 293 292 291 292 292 291 291 290 289 289 288 288 287 287 287 287 287 287 287 286 286 285 285
314 313 309 308 309 311 312 313 312 312 296 308 312 310 307 303 300 298 297 295 294 292 291 290 290 291 290 290 289 289 288 288 287 287 287 287 286 286 286 286 286 286 286 286
312 314 311 310 309 308 311 309 314 310 309 308 311 311 312 306 302 299 297 295 294 291 290 289 289 289 289 289 289 288 288 288 288 287 287 287 287 286 286 286 286 286 286 286
311 311 312 311 311 311 310 309 310 311 311 309 308 309 306 306 303 301 298 297 294 291 289 288 289 290 289 289 289 289 288 288 288 288 287 287 287 287 287 286 286 286 286 286
312 312 309 312 307 308 308 309 309 313 311 309 311 311 306 305 302 300 299 298 293 292 288 288 289 289 289 289 289 289 289 288 288 288 288 288 287 287 287 287 286 286 285 285
310 310 303 305 304 308 309 309 308 308 305 303 309 308 301 300 300 300 298 296 293 290 289 288 288 288 289 289 289 289 289 288 288 288 288 288 288 287 287 286 286 286 283 283
308 304 306 313 304 305 306 308 306 305 303 304 306 305 302 301 299 296 293 291 288 287 287 286 288 288 288 288 288 288 288 288 287 286 286 286 286 286 285 285 284 282 282 282
306 303 305 304 306 306 305 305 304 304 302 303 303 302 301 296 295 293 287 286 287 288 288 287 286 287 287 287 287 288 288 287 286 286 286 285 284 283 281 281 281 281 282 282
298 299 297 294 300 301 301 301 302 302 302 299 300 299 296 289 286 286 286 287 288 287 287 287 288 287 286 286 286 286 285 284 283 282 281 279 278 278 278 278 278 277 277 277
299 296 292 292 292 291 290 292 297 296 296 296 296 295 290 288 288 286 286 287 287 286 286 286 286 286 286 285 284 282 281 279 278 277 277 276 276 276 276 275 274 273 272 272
295 290 286 285 283 287 291 290 292 293 292 292 291 289 289 290 287 286 286 287 287 286 286 286 285 285 284 282 280 278 276 276 275 275 275 274 274 273 272 271 270 270 269 268
295 295 288 289 280 288 292 291 290 291 289 288 290 290 289 287 286 286 285 286 286 285 286 285 283 282 280 278 276 275 274 274 273 273 272 271 270 269 268 268 267 266 266 265
292 295 290 275 282 286 286 287 287 286 287 283 283 285 286 286 285 286 285 285 286 286 285 282 281 279 277 275 274 273 272 272 271 271 270 268 268 267 266 265 264 264 264 264
284 287 296 284 280 283 287 288 288 287 287 284 286 285 284 285 286 286 286 286 286 284 282 280 278 276 275 273 272 271 271 270 269 268 267 266 265 264 263 263 263 262 262 262
287 287 287 286 290 287 287 287 289 289 288 289 287 286 286 286 287 286 285 284 282 281 279 277 276 274 273 272 270 269 269 268 267 266 265 264 263 263 262 262 262 262 262 262
287 287 285 287 287 288 287 287 288 288 288 287 287 286 285 286 286 285 284 281 280 278 277 275 273 272 271 270 269 268 267 266 265 264 263 263 262 262 262 261 261 261 261 262
287 285 286 285 287 288 288 288 287 287 287 287 286 286 285 285 285 284 282 280 279 276 274 273 271 270 269 268 267 266 265 264 263 263 262 262 262 261 261 261 261 261 261 262
288 286 284 285 287 287 287 287 288 287 286 286 285 285 285 284 283 282 280 277 276 274 272 270 269 268 267 266 266 265 265 263 262 262 261 261 261 261 261 261 261 261 262 263
288 288 288 287 288 288 288 288 287 286 286 286 285 283 282 282 281 278 276 276 273 271 270 268 267 266 266 265 265 265 264 263 261 261 261 261 261 261 261 261 261 262 264 265

GFSCGP_925_thetae_063.txt.gz
Theta_e
309 308 309 309 308 309 311 309 309 308 308 311 311 310 308 304 302 303 301 300 298 297 296 295 295 295 296 298 300 301 304 306 310 312 310 306 303 304 304 304 305 309 313 315
309 309 309 309 308 309 309 310 309 309 310 311 311 311 305 304 303 302 300 299 298 297 296 295 294 294 294 295 296 297 298 301 302 304 303 301 301 299 299 299 300 301 303 306
312 313 310 309 310 310 310 311 312 312 311 309 310 310 308 304 302 300 299 298 297 296 295 294 294 293 293 294 294 295 296 296 297 299 300 299 299 298 298 296 296 296 298 299
310 310 311 310 311 310 314 311 312 312 311 312 309 313 308 304 302 300 299 297 296 295 294 294 293 293 292 291 292 293 293 293 293 294 294 293 291 290 290 290 290 291 292 292
315 314 312 313 312 312 314 310 310 310 309 310 310 311 309 304 305 302 299 297 296 294 293 292 293 292 292 290 289 289 289 289 289 289 289 288 288 287 286 287 287 287 287 287
313 309 309 310 309 310 309 308 308 307 308 312 310 311 312 306 306 302 300 297 296 294 293 292 292 291 291 290 289 288 288 287 287 288 287 287 287 287 287 286 286 286 286 286
311 311 309 308 309 308 307 307 312 314 313 316 310 311 311 306 304 302 300 297 295 293 292 291 290 290 290 289 289 288 288 287 287 287 287 287 286 286 286 286 286 286 286 286
314 315 310 307 309 310 307 308 313 314 315 315 310 315 311 302 301 300 298 295 293 292 291 290 290 290 289 289 288 288 288 288 288 288 288 288 287 287 287 287 287 287 286 286
314 314 308 307 308 309 309 310 310 310 295 308 311 309 304 301 300 298 296 294 292 292 291 290 290 289 289 288 288 288 288 288 288 288 288 288 288 287 287 287 287 287 286 286
312 313 310 309 308 307 309 308 313 309 309 310 311 310 311 303 301 297 296 294 292 291 289 288 289 289 289 288 288 288 288 288 288 287 287 287 287 287 287 287 287 286 286 286
309 311 311 310 309 310 309 309 310 310 309 307 306 308 305 305 302 298 296 295 293 290 288 287 288 289 289 289 288 288 288 287 287 287 287 287 287 287 286 286 286 285 285 285
310 311 309 311 307 306 307 309 309 315 312 308 309 311 301 304 301 299 297 296 292 290 287 287 289 289 289 289 288 288 288 287 287 287 286 286 286 286 286 286 285 285 284 282
311 312 306 311 307 307 308 308 307 306 304 308 310 310 300 300 299 298 298 296 293 290 287 287 287 287 288 288 287 287 287 287 287 287 287 286 286 286 286 285 284 282 280 280
308 307 308 314 308 306 307 308 306 305 304 307 307 304 302 301 300 297 295 294 291 289 288 286 286 287 288 287 287 287 287 287 287 286 286 285 284 283 281 280 279 278 278 278
307 311 306 305 306 306 305 307 306 304 304 307 305 305 302 300 298 296 292 289 286 286 285 284 285 286 286 286 286 287 286 286 285 284 283 281 280 279 278 277 277 276 275 275
300 307 303 304 298 299 303 303 305 304 304 301 302 304 298 296 288 288 287 286 286 286 285 285 286 286 286 286 286 286 285 284 282 280 279 278 277 276 275 275 274 273 272 271
301 300 301 305 292 293 297 297 303 304 301 303 303 301 290 287 289 287 286 285 286 286 286 285 286 286 286 286 285 283 282 280 278 277 276 275 274 273 273 272 271 270 270 269
296 294 292 293 287 292 295 289 291 299 295 294 292 288 288 290 287 286 285 285 286 286 285 285 286 286 285 284 283 281 278 277 276 275 274 273 272 271 270 269 268 268 267 267
295 296 291 297 288 291 294 290 289 291 291 289 292 290 289 286 286 286 285 284 285 284 286 286 286 285 283 281 279 277 275 274 273 272 272 271 270 269 268 267 266 266 265 264
293 294 299 280 290 291 287 286 286 287 289 283 285 286 287 286 285 286 284 284 285 286 286 285 284 281 279 277 276 274 273 272 271 271 270 269 268 267 266 265 264 264 263 263
291 293 299 287 292 286 287 287 288 287 289 283 286 285 285 285 287 286 284 284 286 285 284 283 280 279 277 275 273 272 271 270 270 269 267 267 266 265 265 264 264 263 262 262
289 292 288 291 293 292 287 287 289 289 288 288 286 286 286 287 286 285 284 284 283 282 281 280 278 276 274 273 271 270 269 269 268 266 265 265 265 265 264 263 263 262 261 261
288 288 287 290 290 288 287 287 288 288 288 287 287 287 286 286 285 285 285 283 282 281 279 278 276 274 272 271 270 268 268 267 265 264 264 265 265 264 263 262 262 261 261 261
286 285 286 286 288 287 288 288 287 287 287 287 287 286 284 284 284 284 284 282 280 279 277 275 273 271 271 269 268 267 266 265 264 264 264 264 263 263 262 262 261 261 261 261
288 286 283 285 287 287 287 287 288 287 286 286 285 285 284 284 284 283 282 280 279 277 275 273 271 270 269 267 267 266 265 265 264 263 263 263 262 262 261 261 261 261 263 263
286 286 287 287 288 288 289 288 287 287 286 285 284 284 283 284 283 282 280 280 277 275 273 271 269 268 267 266 267 266 265 264 263 262 262 262 261 261 260 260 261 262 264 265

GFSCGP_925_thetae_069.txt.gz
Theta_e
307 308 311 311 307 309 308 309 311 309 308 309 308 308 306 302 300 299 297 296 296 295 293 292 293 294 296 301 305 305 305 303 306 306 305 299 295 296 299 297 298 301 303 304
307 308 309 307 307 308 309 309 309 308 307 308 308 309 304 302 301 299 298 297 296 294 293 292 291 292 293 295 297 300 302 303 302 302 297 294 292 290 289 289 290 291 292 292
309 311 307 308 307 308 307 308 308 311 310 308 309 311 306 301 299 298 297 296 295 294 293 291 290 289 291 292 292 294 295 296 295 294 293 291 289 288 288 287 287 287 287 287
308 308 310 309 310 309 311 306 308 310 311 314 309 318 307 303 300 298 297 295 294 293 292 290 289 288 288 289 289 290 291 292 292 292 291 290 287 286 286 287 287 287 287 287
313 310 310 312 312 309 313 307 308 310 311 309 308 311 308 302 302 300 297 295 293 292 291 290 288 287 288 288 288 288 288 288 288 289 289 288 287 287 287 287 286 286 286 286
312 308 309 310 309 309 306 307 307 305 306 311 310 311 310 306 305 300 297 295 294 292 290 289 288 287 287 287 287 287 288 287 288 288 288 287 287 287 287 286 286 286 286 285
312 311 309 306 308 306 306 309 313 314 312 314 308 309 311 305 302 301 298 295 293 291 290 289 288 287 286 286 287 287 287 287 287 287 287 287 287 286 286 286 286 285 285 285
317 319 310 306 308 310 306 309 314 315 315 314 310 313 312 302 300 300 298 296 293 291 289 288 287 287 287 287 287 287 287 287 287 287 287 287 287 286 286 286 286 286 285 284
315 316 307 305 305 308 308 309 308 309 296 308 311 309 302 300 299 299 297 295 293 291 289 288 287 287 287 287 287 288 287 287 287 287 287 287 287 287 286 286 286 286 285 283
312 315 308 306 306 306 307 306 311 309 311 311 311 311 312 304 300 298 297 295 294 291 289 288 288 287 287 287 287 287 288 287 287 287 287 287 287 286 286 286 285 283 281 280
309 312 310 307 308 309 308 309 308 309 310 311 309 310 304 304 301 299 298 296 294 291 290 289 288 288 287 287 287 287 287 287 287 287 287 286 286 285 284 282 280 280 280 280
308 311 310 309 305 305 307 307 309 313 309 306 307 310 300 302 301 299 298 296 293 291 289 288 287 287 287 287 287 287 287 287 287 286 285 285 284 283 282 281 280 280 279 279
309 314 314 314 309 306 308 306 306 306 306 305 310 310 300 300 299 299 297 296 293 290 288 287 286 286 286 287 287 287 286 286 286 285 285 284 283 283 282 281 280 279 279 278
310 312 314 320 313 307 308 307 306 309 305 308 311 307 304 301 300 297 297 295 292 291 289 287 286 286 287 287 286 285 285 285 285 284 284 283 282 281 280 279 278 277 276 275
313 315 307 306 304 306 306 306 306 307 309 312 308 309 305 304 301 299 297 294 292 291 289 287 286 285 286 286 285 285 285 285 284 283 283 282 281 279 278 277 276 275 274 274
305 313 311 309 302 303 307 305 304 306 306 305 304 305 302 300 296 295 295 294 294 293 290 288 287 286 285 285 285 285 285 284 282 283 283 281 279 278 277 276 275 275 274 273
306 306 309 311 298 303 309 305 304 304 302 306 307 308 295 296 298 297 295 295 295 293 290 287 287 286 286 286 286 285 284 282 282 282 281 279 278 276 275 274 273 273 272 270
305 306 306 300 300 307 301 290 295 305 303 301 296 294 296 296 292 292 291 293 291 287 286 286 285 286 287 286 285 285 282 281 281 280 279 277 275 274 273 272 272 271 270 269
298 302 297 302 304 302 302 290 292 296 298 299 302 295 290 287 289 290 287 287 287 286 285 286 287 287 286 285 285 283 281 280 279 278 276 275 274 273 272 271 270 270 269 268
296 297 309 294 304 306 297 287 287 291 295 290 295 292 289 288 293 291 286 285 284 286 287 287 286 286 285 284 283 281 280 278 277 276 275 274 273 272 271 270 269 269 268 267
297 297 305 299 304 300 292 287 288 294 297 285 289 288 287 289 290 288 284 284 285 286 286 286 286 286 285 283 282 280 278 277 277 276 274 273 272 271 270 269 269 268 267 266
296 299 296 294 298 302 287 287 292 292 287 287 287 287 287 287 286 286 284 283 283 284 285 285 284 284 283 282 280 278 277 276 275 274 273 272 271 270 269 268 268 267 266 264
293 294 294 295 296 289 288 289 288 288 288 287 287 286 287 286 285 284 284 282 282 284 284 285 284 282 280 279 278 277 277 275 274 273 272 270 269 268 268 267 267 265 264 262
286 285 288 289 288 288 288 287 287 287 287 287 287 285 284 286 285 284 282 282 282 283 283 283 281 279 277 277 276 276 276 274 273 272 270 269 268 268 267 266 266 264 263 262
288 286 284 285 287 288 288 287 288 287 286 287 286 285 285 284 282 283 282 281 282 283 282 282 280 278 277 276 276 275 274 273 272 270 269 268 267 267 266 265 265 264 263 263
285 286 287 287 288 288 289 289 287 286 286 285 285 284 284 284 284 282 281 283 282 282 281 279 279 278 278 276 275 274 273 271 270 269 269 267 266 265 264 264 264 266 264 265

GFSCGP_925_thetae_072.txt.gz
Theta_e
312 315 317 317 316 317 317 316 317 315 313 313 316 316 314 308 307 306 304 303 302 300 297 296 297 298 299 299 301 302 304 302 302 302 300 297 293 293 291 291 291 293 294 294
312 316 317 313 314 314 314 316 317 314 311 312 315 314 314 308 308 306 304 303 301 299 298 296 296 297 297 297 297 298 300 299 298 297 295 293 291 290 289 289 289 289 290 290
317 316 313 312 311 312 314 315 316 316 313 312 313 317 313 305 303 302 301 300 300 299 297 295 294 295 295 295 295 295 295 294 293 292 291 291 290 290 289 289 288 287 287 287
314 312 311 311 312 312 316 312 313 314 315 321 313 324 317 310 306 302 301 300 299 297 295 293 293 293 292 292 292 292 292 291 291 291 291 291 290 289 288 288 287 287 287 286
316 312 313 314 313 311 315 312 313 313 316 316 316 320 320 307 308 304 301 300 298 296 294 293 291 290 289 290 290 290 289 289 289 290 290 290 289 288 288 288 287 287 286 285
314 309 312 313 310 312 310 311 311 311 314 320 319 318 323 312 311 306 302 300 298 295 293 291 290 289 289 289 289 289 289 289 289 289 289 289 289 288 288 288 288 287 286 285
316 314 310 309 314 309 312 315 323 321 319 324 311 317 320 312 308 306 302 300 297 295 293 291 289 289 288 289 289 289 289 288 288 288 288 288 288 288 287 287 287 287 286 285
322 324 314 310 317 317 313 318 325 329 322 320 310 316 316 306 304 305 302 300 297 295 293 291 290 289 288 288 288 288 288 288 288 287 287 287 287 287 287 286 286 285 284 283
321 322 311 307 308 314 312 313 314 313 306 318 318 315 308 304 304 303 301 299 297 295 293 292 290 289 288 288 288 288 288 287 287 287 287 287 287 287 286 286 285 284 283 282
317 322 310 308 308 308 311 312 316 315 322 324 318 316 318 308 306 303 301 299 297 295 293 292 290 289 288 288 288 288 287 287 287 287 287 286 286 286 286 285 284 283 282 282
313 316 312 309 311 314 311 312 312 314 316 323 322 318 311 312 308 304 302 300 298 296 294 292 290 289 288 288 287 288 288 287 287 286 286 286 286 286 285 284 282 281 280 279
314 315 318 313 308 306 312 313 313 319 316 314 316 319 305 307 307 304 303 300 298 296 294 293 291 289 288 288 288 288 287 287 286 286 286 286 286 284 282 280 279 279 278 278
313 317 323 320 310 308 310 310 312 315 315 319 321 319 304 304 305 303 303 301 299 296 295 294 291 289 288 288 288 288 287 286 286 286 286 284 282 280 279 279 278 278 278 278
311 317 322 326 321 315 314 312 310 314 319 319 317 317 307 306 305 304 303 302 300 297 295 294 291 289 289 288 288 287 286 286 285 285 283 281 281 280 279 279 279 278 278 277
312 317 317 318 309 309 311 313 311 313 314 318 318 314 311 309 307 305 303 302 300 297 295 294 293 290 289 288 287 286 285 284 285 282 281 281 280 280 279 278 278 277 276 275
308 315 313 317 306 307 311 309 311 311 312 313 310 311 309 308 305 306 303 301 299 297 295 294 292 290 289 288 287 285 284 284 283 281 281 280 279 279 279 278 277 276 275 274
308 310 314 318 303 308 314 313 309 309 309 310 311 313 304 303 304 305 303 300 299 298 296 294 292 290 288 287 285 285 284 283 282 281 280 279 279 279 278 277 276 275 274 273
308 311 312 306 304 315 306 295 303 310 310 307 306 305 304 306 303 301 302 300 299 298 296 294 292 290 288 287 286 285 283 282 281 280 279 278 279 279 277 276 274 273 272 271
298 306 302 308 309 307 307 295 296 304 308 305 306 305 300 293 294 297 295 297 299 297 295 293 290 288 287 286 285 284 283 281 280 279 278 278 279 277 275 274 273 272 270 269
298 300 310 302 310 312 309 294 290 298 305 299 304 304 297 292 302 303 291 291 290 289 288 288 288 287 286 285 286 284 282 280 279 279 278 278 277 275 274 272 271 271 270 269
301 301 307 304 309 308 300 291 290 303 307 291 296 297 293 296 299 293 289 288 288 288 287 287 286 286 286 286 285 282 281 280 280 278 278 276 275 274 273 272 271 270 269 268
303 304 304 305 306 308 290 289 298 299 290 291 291 293 292 292 289 289 288 287 287 286 286 285 285 285 285 285 284 281 280 279 278 278 276 275 274 273 272 271 270 269 269 267
301 302 304 303 305 291 291 294 292 291 292 290 291 291 291 290 288 288 287 287 286 285 285 285 285 284 283 283 283 281 280 279 278 277 275 274 273 272 271 270 269 268 267 266
290 289 296 297 293 291 290 290 289 290 290 289 289 290 289 290 289 287 286 285 284 284 284 284 284 282 281 281 282 281 280 278 277 276 274 273 271 271 270 269 268 267 266 266
292 290 290 290 288 289 290 290 291 289 288 287 287 287 289 289 288 287 286 285 285 284 284 284 283 282 282 281 280 279 278 277 276 273 272 270 270 269 269 268 268 266 266 265
288 289 291 294 291 293 293 293 291 289 288 288 288 287 286 287 288 286 286 285 284 283 283 282 282 282 281 280 279 278 277 276 274 272 270 269 268 268 267 266 266 267 265 266

GFSCGP_925_thetae_075.txt.gz
Theta_e
316 318 319 319 318 319 320 320 321 320 317 316 318 319 319 314 312 314 312 310 308 306 302 302 304 301 300 300 301 302 301 300 300 299 298 297 295 294 293 292 292 292 292 293
315 318 318 319 318 319 319 319 320 320 318 314 317 319 318 317 313 313 312 310 307 304 303 302 303 300 299 299 299 300 300 301 299 298 296 295 294 292 291 290 290 290 290 290
319 320 317 318 316 317 318 319 319 319 318 315 316 319 319 318 313 309 308 308 305 304 302 302 303 300 299 298 298 299 298 297 296 295 293 292 292 292 291 290 289 289 288 288
317 318 315 317 316 316 318 318 317 317 317 320 318 323 322 321 311 308 307 305 304 303 301 300 300 300 298 297 296 296 296 295 295 295 295 294 293 291 290 289 289 288 288 287
318 315 315 316 317 315 318 315 315 316 318 320 321 321 321 318 314 311 307 305 303 301 300 299 298 296 295 295 295 293 293 292 293 293 292 292 291 290 290 289 289 288 287 286
315 312 314 316 314 314 314 315 315 315 318 324 322 323 324 320 316 314 308 305 302 300 298 296 294 293 293 292 292 292 292 291 291 291 291 291 291 290 290 290 289 288 287 286
317 316 314 313 315 312 315 317 323 326 323 324 318 324 323 318 312 313 307 304 301 299 297 294 292 292 292 292 291 291 291 290 291 291 290 290 290 290 289 289 288 288 286 285
324 324 317 314 317 319 316 318 326 332 329 325 312 319 321 310 309 309 306 304 301 298 296 293 292 291 291 291 291 291 290 290 290 289 289 289 289 289 288 288 287 286 285 284
324 324 316 316 315 318 318 320 319 321 313 320 320 317 312 308 307 307 305 303 301 297 295 293 292 291 291 291 291 290 290 289 289 289 289 288 288 288 288 287 285 284 283 282
322 325 315 313 311 313 317 316 318 322 328 329 324 322 321 311 309 307 305 303 301 298 295 294 292 291 291 291 290 290 290 289 289 288 288 288 288 287 286 285 284 283 283 283
319 321 315 311 314 317 314 316 317 319 321 326 327 322 316 316 311 307 306 303 301 298 296 294 292 291 290 290 290 290 289 289 288 288 288 287 287 285 284 284 283 283 282 282
318 321 326 316 312 312 316 317 317 321 321 319 321 323 310 311 312 308 306 303 301 298 296 294 292 291 291 290 290 289 289 289 288 288 288 287 285 284 284 283 283 282 281 279
318 317 326 322 315 310 312 314 315 316 320 324 324 322 307 307 309 308 307 304 302 299 297 295 293 291 291 290 290 289 289 289 288 287 286 285 284 283 283 282 281 279 279 278
315 316 323 328 322 317 315 314 313 316 320 321 321 320 310 309 309 307 307 304 302 299 297 295 294 292 291 290 290 290 289 288 287 287 285 284 283 282 281 280 279 279 278 277
315 315 317 320 318 312 315 316 314 314 316 320 320 319 316 311 310 308 306 305 303 300 298 296 295 293 291 290 290 289 289 287 287 286 284 283 282 281 280 279 279 278 277 277
311 316 316 319 319 316 314 313 315 314 314 315 316 318 311 312 309 308 307 305 303 301 299 297 295 293 291 290 290 289 288 287 285 284 283 282 281 280 279 278 278 278 277 277
310 312 314 320 314 310 313 313 313 314 313 314 316 315 309 307 308 309 307 305 303 302 299 297 295 293 291 290 289 288 287 286 284 283 282 281 280 278 278 278 278 278 277 276
308 311 313 317 309 317 311 299 312 314 313 312 311 310 309 308 307 305 307 305 303 301 299 297 295 293 291 290 288 287 286 284 283 282 282 280 279 277 277 278 278 277 276 275
301 310 308 313 313 313 310 303 307 311 313 311 310 310 307 297 297 301 299 302 303 301 299 298 296 293 290 289 287 286 284 283 282 281 281 279 278 277 277 278 278 277 275 274
300 303 313 307 314 315 315 298 295 304 311 308 308 309 305 297 308 309 296 296 297 298 297 296 293 292 289 288 287 285 283 282 281 281 280 279 278 278 278 278 277 275 274 273
305 306 311 310 313 312 308 294 293 310 314 297 305 304 298 302 304 296 294 293 293 292 292 292 291 289 288 286 284 283 282 282 281 281 280 278 278 278 277 276 275 274 273 272
307 309 308 309 310 310 293 291 299 301 292 294 298 297 297 296 292 291 291 290 289 288 289 287 287 286 285 285 285 283 282 281 282 280 278 278 278 277 276 275 274 273 271 270
305 306 309 309 308 294 293 295 294 293 294 292 294 294 295 293 290 290 289 289 288 287 286 286 285 284 283 284 284 283 282 282 281 279 278 278 277 275 274 273 272 271 271 270
295 293 299 301 296 294 292 292 290 291 292 291 291 292 292 292 290 289 288 287 286 286 285 285 285 283 282 283 283 284 282 281 280 279 277 276 275 273 272 271 271 270 270 269
295 293 295 296 291 292 293 292 293 291 289 288 288 290 291 291 290 289 288 287 286 286 285 285 284 283 283 283 282 282 282 281 280 278 276 274 272 271 271 271 270 270 270 269
291 293 295 299 294 296 296 295 293 291 289 289 289 288 289 289 289 288 287 287 286 285 285 284 284 284 284 283 282 282 281 281 279 276 274 272 271 271 270 270 269 269 269 269